Weather History for Jacksonville, IL

Change the Weather History Date:

Friday, November 9, 2012

  Actual Average (KSPI) Record (KSPI)
Temperature  
Mean Temperature 58 °F 46 °F  
Max Temperature 70 °F 56 °F 76 °F (1975)
Min Temperature 45 °F 37 °F 9 °F (1991)
Degree Days  
Heating Degree Days 8 19  
Month to date heating degree days 153  
Since 1 July heating degree days 563  
Cooling Degree Days 0 0  
Month to date cooling degree days 0  
Year to date cooling degree days 1121  
Growing Degree Days 8 (Base 50)    
Moisture  
Dew Point 47 °F    
Average Humidity 68    
Maximum Humidity 81    
Minimum Humidity 51    
Precipitation  
Precipitation 0.00 in 0.10 in 1.51 in (1942)
Month to date precipitation 0.93  
Year to date precipitation 32.63  
Snow  
Snow 0.00 in 0.10 in 0.30 in (1968)
Month to date snowfall 0.1  
Since 1 July snowfall 0.1  
Since 1 September snowfall 0.1  
Snow Depth -    
Sea Level Pressure  
Sea Level Pressure 29.98 in    
Wind  
Wind Speed 8 mph (SSE)    
Max Wind Speed 14 mph    
Max Gust Speed 21 mph    
Visibility 7 miles    
Events      
T = Trace of Precipitation, MM = Missing Value Source: NWS Daily Summary

Daily Weather History Graph

Daily Weather History Graph

Search for Another Location

Airport:

Trip Planner

Search our weather history database for the weather conditions in past years. The results will help you decide how hot, cold, wet, or windy it might be!

Date:

Astronomy

Nov. 09, 2012 Rise Set
Actual Time 6:39 AM CST 4:49 PM CST
Civil Twilight 6:10 AM CST 5:18 PM CST
Nautical Twilight 5:38 AM CST 5:50 PM CST
Astronomical Twilight 5:06 AM CST 6:22 PM CST
Moon 1:38 AM CST (11/9) 2:02 PM CST (11/9)
Length of Visible Light 11h 07m
Length of Day
10h 10m
Waning Crescent, 23% of the Moon is Illuminated
Nov 9
Waning Crescent
Nov 13
New
Nov 20
First Quarter
Nov 28
Full
Dec 6
Last Quarter

Hourly Weather History & Observations

Time (CST) Temp. Windchill Dew Point Humidity Pressure Visibility Wind Dir Wind Speed Gust Speed Precip Events Conditions
12:15 AM 46.6 °F - 39.7 °F 77% 30.08 in 10.0 mi South 5.8 mph - N/A   Clear
12:35 AM 46.2 °F 44.1 °F 39.7 °F 78% 30.07 in 4.0 mi SSE 4.6 mph - N/A   Haze
12:55 AM 46.2 °F 43.3 °F 39.6 °F 78% 30.07 in 2.0 mi SSE 5.8 mph - N/A   Haze
1:15 AM 45.9 °F 41.7 °F 39.7 °F 79% 30.06 in 2.5 mi SE 8.1 mph - N/A   Haze
1:35 AM 45.7 °F 41.5 °F 39.9 °F 80% 30.05 in 2.0 mi SSE 8.1 mph - N/A   Haze
1:55 AM 46.0 °F 41.4 °F 39.7 °F 79% 30.05 in 2.0 mi SSE 9.2 mph - N/A   Haze
2:15 AM 46.4 °F 41.9 °F 39.7 °F 78% 30.05 in 3.0 mi SSE 9.2 mph - N/A   Haze
2:35 AM 46.4 °F 42.4 °F 39.7 °F 78% 30.05 in 2.5 mi SSE 8.1 mph - N/A   Haze
2:55 AM 46.0 °F 42.5 °F 39.6 °F 78% 30.05 in 2.0 mi SSE 6.9 mph - N/A   Haze
3:15 AM 45.9 °F 42.3 °F 39.6 °F 79% 30.04 in 2.5 mi SSE 6.9 mph - N/A   Haze
3:35 AM 45.5 °F 42.5 °F 39.4 °F 79% 30.04 in 2.0 mi SSE 5.8 mph - N/A   Haze
3:55 AM 45.0 °F 41.2 °F 39.4 °F 81% 30.04 in 2.0 mi SE 6.9 mph - N/A   Haze
4:15 AM 45.9 °F 42.3 °F 40.1 °F 80% 30.05 in 2.5 mi SSE 6.9 mph - N/A   Haze
4:35 AM 46.8 °F - 40.1 °F 78% 30.04 in 2.0 mi SSE 9.2 mph - N/A   Haze
4:55 AM 46.9 °F - 40.3 °F 78% 30.05 in 2.0 mi SSE 8.1 mph - N/A   Haze
5:15 AM 47.1 °F - 40.1 °F 77% 30.05 in 2.0 mi SSE 9.2 mph - N/A   Haze
5:35 AM 46.9 °F - 40.1 °F 77% 30.05 in 2.0 mi SSE 8.1 mph - N/A   Haze
5:55 AM 46.6 °F - 40.1 °F 78% 30.05 in 2.0 mi SSE 6.9 mph - N/A   Haze
6:15 AM 46.6 °F - 40.5 °F 79% 30.04 in 2.0 mi SE 6.9 mph - N/A   Haze
6:35 AM 46.8 °F - 40.5 °F 79% 30.05 in 2.0 mi SSE 5.8 mph - N/A   Haze
6:55 AM 48.0 °F - 41.0 °F 77% 30.04 in 1.2 mi SSE 8.1 mph - N/A   Haze
7:15 AM 48.6 °F - 41.0 °F 75% 30.04 in 1.2 mi SSE 9.2 mph - N/A   Haze
7:35 AM 49.3 °F - 41.2 °F 74% 30.04 in 1.5 mi SSE 6.9 mph - N/A   Haze
7:55 AM 50.4 °F - 41.7 °F 72% 30.04 in 1.5 mi SSE 11.5 mph - N/A   Haze
8:15 AM 51.8 °F - 42.3 °F 70% 30.04 in 1.8 mi South 10.4 mph - N/A   Haze
8:35 AM 52.9 °F - 42.8 °F 69% 30.04 in 2.5 mi South 11.5 mph 16.1 mph N/A   Haze
8:55 AM 54.7 °F - 43.5 °F 66% 30.03 in 2.0 mi South 9.2 mph - N/A   Haze
9:15 AM 55.8 °F - 43.7 °F 64% 30.03 in 4.0 mi South 10.4 mph - N/A   Haze
9:35 AM 57.4 °F - 44.4 °F 62% 30.02 in 0.8 mi South 9.2 mph - N/A   Haze
9:55 AM 59.0 °F - 45.0 °F 60% 30.02 in 10.0 mi South 9.2 mph 17.3 mph N/A   Clear
10:15 AM 60.8 °F - 46.2 °F 59% 30.02 in 10.0 mi South 12.7 mph 16.1 mph N/A   Clear
10:35 AM 62.8 °F - 47.1 °F 57% 30.01 in 10.0 mi South 12.7 mph - N/A   Clear
10:55 AM 64.4 °F - 47.7 °F 55% 30.01 in 10.0 mi SSW 12.7 mph - N/A   Clear
11:15 AM 64.9 °F - 47.7 °F 54% 29.99 in 10.0 mi South 12.7 mph 17.3 mph N/A   Clear
11:35 AM 65.3 °F - 48.4 °F 54% 29.98 in 10.0 mi South 10.4 mph - N/A   Clear
11:55 AM 66.4 °F - 48.9 °F 53% 29.97 in 10.0 mi South 10.4 mph - N/A   Clear
12:15 PM 67.5 °F - 49.5 °F 52% 29.96 in 10.0 mi South 10.4 mph - N/A   Clear
12:35 PM 68.2 °F - 49.6 °F 51% 29.95 in 10.0 mi South 9.2 mph - N/A   Clear
12:55 PM 68.2 °F - 49.8 °F 52% 29.95 in 10.0 mi SSW 10.4 mph - N/A   Clear
1:15 PM 68.7 °F - 50.2 °F 52% 29.94 in 10.0 mi SSW 10.4 mph - N/A   Clear
1:35 PM 68.9 °F - 50.2 °F 51% 29.93 in 10.0 mi SSW 11.5 mph - N/A   Clear
1:55 PM 69.1 °F - 50.7 °F 52% 29.93 in 10.0 mi South 10.4 mph - N/A   Clear
2:15 PM 70.0 °F - 51.1 °F 51% 29.93 in 10.0 mi South 8.1 mph - N/A   Clear
2:35 PM 69.6 °F - 50.9 °F 51% 29.93 in 10.0 mi South 9.2 mph - N/A   Clear
2:55 PM 69.4 °F - 51.4 °F 53% 29.93 in 10.0 mi SSE 10.4 mph - N/A   Clear
3:15 PM 69.3 °F - 51.6 °F 53% 29.92 in 10.0 mi SSE 6.9 mph - N/A   Clear
3:35 PM 69.1 °F - 52.2 °F 55% 29.92 in 10.0 mi South 9.2 mph - N/A   Clear
3:55 PM 68.9 °F - 52.3 °F 55% 29.91 in 10.0 mi South 5.8 mph - N/A   Clear
4:15 PM 68.0 °F - 52.0 °F 56% 29.91 in 10.0 mi SSE 5.8 mph - N/A   Clear
4:35 PM 66.9 °F - 52.2 °F 59% 29.92 in 10.0 mi SSE 5.8 mph - N/A   Clear
4:55 PM 66.2 °F - 52.3 °F 61% 29.91 in 10.0 mi SSE 6.9 mph - N/A   Clear
5:15 PM 65.3 °F - 52.9 °F 64% 29.91 in 10.0 mi SSE 6.9 mph - N/A   Clear
5:35 PM 64.4 °F - 53.2 °F 67% 29.91 in 10.0 mi SSE 8.1 mph - N/A   Clear
5:55 PM 64.2 °F - 53.1 °F 67% 29.91 in 10.0 mi SSE 6.9 mph - N/A   Clear
6:15 PM 63.7 °F - 52.9 °F 68% 29.91 in 10.0 mi SSE 8.1 mph - N/A   Clear
6:35 PM 62.6 °F - 52.7 °F 70% 29.91 in 10.0 mi SE 5.8 mph - N/A   Clear
6:55 PM 59.2 °F - 51.8 °F 77% 29.91 in 10.0 mi SE 8.1 mph - N/A   Clear
7:15 PM 60.1 °F - 52.7 °F 77% 29.91 in 10.0 mi SE 6.9 mph - N/A   Clear
7:35 PM 60.8 °F - 52.5 °F 74% 29.91 in 10.0 mi SSE 6.9 mph - N/A   Clear
7:55 PM 62.8 °F - 53.1 °F 71% 29.91 in 10.0 mi SSE 9.2 mph - N/A   Clear
8:15 PM 63.5 °F - 53.6 °F 70% 29.90 in 10.0 mi South 9.2 mph - N/A   Clear
8:35 PM 63.5 °F - 53.8 °F 71% 29.91 in 10.0 mi South 9.2 mph - N/A   Clear
8:55 PM 63.1 °F - 54.0 °F 72% 29.92 in 10.0 mi South 11.5 mph 16.1 mph N/A   Clear
9:15 PM 62.8 °F - 53.8 °F 72% 29.92 in 10.0 mi South 12.7 mph 17.3 mph N/A   Clear
9:35 PM 63.0 °F - 54.0 °F 72% 29.92 in 10.0 mi South 12.7 mph 20.7 mph N/A   Clear
9:55 PM 62.8 °F - 54.1 °F 73% 29.93 in 10.0 mi South 13.8 mph - N/A   Clear
10:15 PM 62.6 °F - 54.1 °F 74% 29.93 in 10.0 mi South 12.7 mph 17.3 mph N/A   Clear
10:35 PM 62.8 °F - 54.5 °F 74% 29.94 in 10.0 mi South 12.7 mph - N/A   Clear
10:55 PM 62.4 °F - 54.1 °F 74% 29.95 in 10.0 mi South 9.2 mph - N/A   Clear
11:15 PM 61.9 °F - 54.1 °F 76% 29.95 in 10.0 mi South 9.2 mph - N/A   Clear
11:35 PM 61.5 °F - 54.0 °F 76% 29.96 in 10.0 mi South 9.2 mph - N/A   Clear
11:55 PM 60.8 °F - 53.8 °F 78% 29.96 in 10.0 mi South 6.9 mph - N/A   Clear